EW9363 Weather Reports


Display with metric or nautical units.
time (UTC)temp
F
wind
direction
speed
MPH
gust
MPH
rain 1hr
in
rain 24hr
in
rain mn
in
humidity
%
barometer
mb
20260505124402 58 194 1.0 5.0 0.00 0.00 0.00 92 1019.9
20260505124119 58 228 1.0 4.0 0.00 0.00 0.00 93 1019.9
20260505123356 57 219 1.0 4.0 0.00 0.00 0.00 94 1019.8
20260505122853 56 207 1.0 3.0 0.00 0.00 0.00 95 1019.8
20260505122352 56 250 1.0 3.0 0.00 0.00 0.00 96 1019.8
20260505121851 55 199 1.0 3.0 0.00 0.00 0.00 97 1019.8
20260505121614 54 199 0.0 2.0 0.00 0.00 0.00 97 1019.8
20260505120852 53 199 0.0 2.0 0.00 0.00 0.00 97 1019.8
20260505120353 53 199 0.0 2.0 0.00 0.00 0.00 97 1019.8
20260505115851 52 199 0.0 2.0 0.00 0.00 0.00 97 1019.7
20260505115344 51 199 0.0 0.0 0.00 0.00 0.00 96 1019.8
20260505115100 51 199 0.0 0.0 0.00 0.00 0.00 96 1019.8
20260505114332 50 199 0.0 0.0 0.00 0.00 0.00 96 1019.8
20260505113826 50 199 0.0 0.0 0.00 0.00 0.00 95 1019.7
20260505113536 50 199 0.0 0.0 0.00 0.00 0.00 96 1019.7
20260505112814 50 199 0.0 0.0 0.00 0.00 0.00 95 1019.6
20260505112533 49 199 0.0 0.0 0.00 0.00 0.00 95 1019.6
20260505111802 49 199 0.0 0.0 0.00 0.00 0.00 94 1019.6
20260505111256 49 199 0.0 0.0 0.00 0.00 0.00 94 1019.6
20260505110750 49 199 0.0 0.0 0.00 0.00 0.00 93 1019.4
20260505110244 49 199 0.0 0.0 0.00 0.00 0.00 93 1019.5
20260505102156 49 199 0.0 0.0 0.00 0.00 0.00 92 1019.0
20260505101650 49 199 0.0 0.0 0.00 0.00 0.00 93 1018.9
20260505101145 49 199 0.0 0.0 0.00 0.00 0.00 93 1018.8
20260505100645 49 199 0.0 0.0 0.00 0.00 0.00 93 1018.8
20260505100147 49 199 0.0 0.0 0.00 0.00 0.00 92 1018.8
20260505095911 49 199 0.0 0.0 0.00 0.00 0.00 92 1018.8
20260505095144 49 199 0.0 0.0 0.00 0.00 0.00 92 1018.8
20260505095136 49 199 0.0 0.0 0.00 0.00 0.00 92 1018.8
20260505094141 49 199 0.0 0.0 0.00 0.00 0.00 92 1018.8
20260505093641 49 199 0.0 0.0 0.00 0.00 0.00 91 1018.9
20260505093142 49 199 0.0 0.0 0.00 0.00 0.00 91 1018.8
20260505092641 49 199 0.0 0.0 0.00 0.00 0.00 92 1018.7
20260505092138 50 199 0.0 0.0 0.00 0.00 0.00 92 1018.7
20260505091638 50 199 0.0 0.0 0.00 0.00 0.00 91 1018.6
20260505091136 50 199 0.0 0.0 0.00 0.00 0.00 91 1018.5
20260505090634 50 199 0.0 0.0 0.00 0.00 0.00 91 1018.5
20260505090359 50 199 0.0 0.0 0.00 0.00 0.00 92 1018.5
20260505085633 50 199 0.0 0.0 0.00 0.00 0.00 91 1018.5
20260505085132 50 199 0.0 0.0 0.00 0.00 0.00 91 1018.5
20260505084634 50 199 0.0 0.0 0.00 0.00 0.00 91 1018.4
20260505084133 50 199 0.0 0.0 0.00 0.00 0.00 91 1018.4
20260505083635 50 199 0.0 0.0 0.00 0.00 0.00 91 1018.3
20260505083402 50 199 0.0 0.0 0.00 0.00 0.00 91 1018.2
20260505082633 50 199 0.0 0.0 0.00 0.00 0.00 91 1018.2
20260505082133 50 199 0.0 0.0 0.00 0.00 0.00 91 1018.1
20260505081839 50 199 0.0 0.0 0.00 0.00 0.00 91 1018.1
20260505081724 50 199 0.0 0.0 0.00 0.00 0.00 91 1018.2
20260505080634 51 199 0.0 0.0 0.00 0.00 0.00 91 1018.1
20260505080131 51 199 0.0 0.0 0.00 0.00 0.00 91 1018.1
20260505075526 51 199 0.0 0.0 0.00 0.00 0.00 90 1018.0
20260505075028 51 199 0.0 0.0 0.00 0.00 0.00 90 1018.0
20260505074527 51 199 0.0 0.0 0.00 0.00 0.00 90 1018.1
20260505074028 51 199 0.0 0.0 0.00 0.00 0.00 89 1018.1
20260505073527 51 199 0.0 0.0 0.00 0.00 0.00 89 1018.1
20260505073028 51 199 0.0 0.0 0.00 0.00 0.00 89 1018.1
20260505072752 51 199 0.0 0.0 0.00 0.00 0.00 89 1018.1
20260505072027 51 199 0.0 0.0 0.00 0.00 0.00 89 1018.1
20260505071528 51 199 0.0 0.0 0.00 0.00 0.00 89 1018.0
20260505071027 52 199 0.0 0.0 0.00 0.00 0.00 88 1018.2
20260505070521 52 199 0.0 0.0 0.00 0.00 0.00 88 1018.1
20260505070015 52 199 0.0 0.0 0.00 0.00 0.00 88 1018.3
20260505065509 52 199 0.0 0.0 0.00 0.00 0.00 88 1018.1
20260505065003 52 199 0.0 0.0 0.00 0.00 0.00 88 1018.2
20260505064457 52 199 0.0 0.0 0.00 0.00 0.00 88 1018.1
20260505063951 53 199 0.0 0.0 0.00 0.00 0.00 88 1018.2
20260505063445 53 199 0.0 0.0 0.00 0.00 0.00 87 1018.3
20260505063159 53 199 0.0 0.0 0.00 0.00 0.00 86 1018.4
20260505062433 53 199 0.0 0.0 0.00 0.00 0.00 86 1018.5
20260505061927 53 199 0.0 0.0 0.00 0.00 0.00 86 1018.5
20260505061421 53 199 0.0 0.0 0.00 0.00 0.00 86 1018.5
20260505060916 53 199 0.0 0.0 0.00 0.00 0.00 85 1018.5
20260505060409 54 199 0.0 0.0 0.00 0.00 0.00 85 1018.6
20260505060121 54 199 0.0 0.0 0.00 0.00 0.00 85 1018.6
20260505055357 54 199 0.0 0.0 0.00 0.00 0.00 83 1018.6
20260505055114 55 199 0.0 0.0 0.00 0.00 0.00 83 1018.6
20260505054345 55 199 0.0 0.0 0.00 0.00 0.00 83 1018.7
20260505053840 55 199 0.0 0.0 0.00 0.00 0.00 83 1018.8
20260505053333 55 199 0.0 0.0 0.00 0.00 0.00 83 1018.8
20260505053053 55 199 0.0 0.0 0.00 0.00 0.00 82 1018.8
20260505052321 56 199 0.0 0.0 0.00 0.00 0.00 82 1018.8
20260505051815 56 199 0.0 0.0 0.00 0.00 0.00 82 1018.8
20260505051309 56 199 0.0 0.0 0.00 0.00 0.00 81 1018.8
20260505050809 56 199 0.0 0.0 0.00 0.00 0.00 80 1018.8
20260505050307 57 199 0.0 0.0 0.00 0.00 0.00 81 1018.9
20260505041754 60 199 0.0 0.0 0.00 0.00 0.00 75 1018.9
20260505041252 60 199 0.0 0.0 0.00 0.00 0.00 75 1019.0
20260505040749 60 199 0.0 0.0 0.00 0.00 0.00 74 1018.9
20260505040509 61 199 0.0 0.0 0.00 0.00 0.00 73 1018.9
20260505035745 61 196 0.0 0.0 0.00 0.00 0.00 72 1019.0
20260505035244 61 196 0.0 0.0 0.00 0.00 0.00 72 1018.9
20260505034745 62 196 0.0 0.0 0.00 0.00 0.00 71 1019.0
20260505034459 62 196 0.0 0.0 0.00 0.00 0.00 70 1019.0
20260505033741 62 196 0.0 0.0 0.00 0.00 0.00 69 1019.0
20260505033505 63 196 0.0 3.0 0.00 0.00 0.00 69 1019.0
20260505032743 63 196 0.0 3.0 0.00 0.00 0.00 69 1019.1
20260505032507 63 196 0.0 3.0 0.00 0.00 0.00 68 1019.2
20260505031742 63 198 1.0 4.0 0.00 0.00 0.00 67 1019.0
20260505031240 64 198 1.0 4.0 0.00 0.00 0.00 67 1019.1
20260505030742 64 207 2.0 5.0 0.00 0.00 0.00 67 1019.0
20260505030241 64 198 1.0 5.0 0.00 0.00 0.00 67 1019.0
20260505025742 64 204 1.0 4.0 0.00 0.00 0.00 66 1019.0
20260505025236 64 192 2.0 4.0 0.00 0.00 0.00 66 1019.0
20260505024730 65 212 2.0 6.0 0.00 0.00 0.00 66 1018.9
20260505024224 65 205 1.0 6.0 0.00 0.00 0.00 66 1018.8
20260505023718 65 175 1.0 6.0 0.00 0.00 0.00 65 1018.9
20260505023212 65 213 1.0 6.0 0.00 0.00 0.00 65 1018.8
20260505022706 65 158 1.0 5.0 0.00 0.00 0.00 65 1018.8
20260505022200 66 228 1.0 5.0 0.00 0.00 0.00 64 1018.9
20260505021655 66 188 1.0 4.0 0.00 0.00 0.00 64 1018.9
20260505021148 66 184 1.0 5.0 0.00 0.00 0.00 63 1018.9
20260505020642 67 217 2.0 5.0 0.00 0.00 0.00 63 1018.7
20260505020144 67 189 2.0 5.0 0.00 0.00 0.00 62 1018.8
20260505015637 67 221 1.0 7.0 0.00 0.00 0.00 62 1018.8
20260505015138 67 210 2.0 7.0 0.00 0.00 0.00 62 1018.7
20260505014633 67 211 2.0 7.0 0.00 0.00 0.00 62 1018.7
20260505014139 67 219 3.0 8.0 0.00 0.00 0.00 62 1018.7
20260505013633 68 157 3.0 8.0 0.00 0.00 0.00 61 1018.6
20260505013140 68 209 3.0 8.0 0.00 0.00 0.00 61 1018.5
20260505012634 68 209 3.0 9.0 0.00 0.00 0.00 61 1018.4
20260505012140 68 200 3.0 9.0 0.00 0.00 0.00 61 1018.4
20260505011632 69 177 3.0 8.0 0.00 0.00 0.00 60 1018.2
20260505011356 69 199 2.0 7.0 0.00 0.00 0.00 60 1018.2
20260505010634 69 199 3.0 8.0 0.00 0.00 0.00 59 1018.0
20260505010359 69 179 3.0 8.0 0.00 0.00 0.00 59 1018.0
20260505005633 69 209 3.0 8.0 0.00 0.00 0.00 59 1017.9
20260505005342 70 214 3.0 8.0 0.00 0.00 0.00 58 1017.9
20260505005228 69 204 3.0 8.0 0.00 0.00 0.00 58 1017.9
20260505004404 70 324 1.0 6.0 0.00 0.00 0.00 57 1017.8
20260505003634 70 314 1.0 5.0 0.00 0.00 0.00 56 1017.7
20260505003139 71 199 2.0 6.0 0.00 0.00 0.00 56 1017.6
20260505002634 71 199 2.0 8.0 0.00 0.00 0.00 55 1017.5
20260505002406 71 190 2.0 8.0 0.00 0.00 0.00 54 1017.5
20260505001854 71 184 1.0 6.0 0.00 0.00 0.00 53 1017.4
20260505001137 72 215 1.0 6.0 0.00 0.00 0.00 52 1017.3
20260505000631 72 203 1.0 4.0 0.00 0.00 0.00 50 1017.3
20260505000136 73 200 0.0 3.0 0.00 0.00 0.00 51 1017.1
20260504235537 73 200 1.0 3.0 0.00 0.00 0.00 48 1017.0
20260504235038 74 199 1.0 4.0 0.00 0.00 0.00 47 1017.0
20260504234538 74 204 1.0 5.0 0.00 0.00 0.00 47 1017.0
20260504234037 74 199 2.0 5.0 0.00 0.00 0.00 46 1017.0
20260504233537 74 198 2.0 5.0 0.00 0.00 0.00 47 1017.0
20260504233037 74 178 2.0 5.0 0.00 0.00 0.00 46 1017.0
20260504232538 75 182 1.0 7.0 0.00 0.00 0.00 46 1017.0
20260504232031 75 192 2.0 7.0 0.00 0.00 0.00 45 1016.9
20260504231532 75 176 1.0 6.0 0.00 0.00 0.00 45 1017.0
20260504231035 75 148 2.0 6.0 0.00 0.00 0.00 44 1017.0
20260504230530 76 215 3.0 11.0 0.00 0.00 0.00 44 1016.9
20260504230033 76 221 3.0 11.0 0.00 0.00 0.00 43 1016.8
20260504225532 76 214 2.0 7.0 0.00 0.00 0.00 43 1016.8
20260504225030 77 213 3.0 7.0 0.00 0.00 0.00 42 1016.9
20260504224532 77 192 2.0 7.0 0.00 0.00 0.00 41 1016.9
20260504224508 77 166 3.0 7.0 0.00 0.00 0.00 41 1016.8
20260504223530 77 267 3.0 7.0 0.00 0.00 0.00 41 1017.0
20260504223032 77 203 3.0 8.0 0.00 0.00 0.00 40 1016.9
20260504222528 77 281 2.0 9.0 0.00 0.00 0.00 39 1016.9
20260504222028 78 200 2.0 9.0 0.00 0.00 0.00 39 1016.9
20260504221528 78 198 2.0 8.0 0.00 0.00 0.00 39 1016.7
20260504221035 78 236 3.0 12.0 0.00 0.00 0.00 38 1016.8
20260504220529 78 205 3.0 12.0 0.00 0.00 0.00 39 1016.8
20260504220036 78 154 3.0 10.0 0.00 0.00 0.00 39 1016.7
20260504215517 78 193 3.0 10.0 0.00 0.00 0.00 39 1016.8
20260504215011 78 222 3.0 10.0 0.00 0.00 0.00 40 1016.7
20260504214505 78 208 4.0 11.0 0.00 0.00 0.00 40 1016.6
20260504214000 78 219 4.0 11.0 0.00 0.00 0.00 39 1016.7
20260504213713 78 217 4.0 14.0 0.00 0.00 0.00 40 1016.7
20260504212947 78 189 4.0 14.0 0.00 0.00 0.00 40 1016.7
20260504212441 79 212 4.0 12.0 0.00 0.00 0.00 39 1016.7
20260504211936 79 190 3.0 12.0 0.00 0.00 0.00 39 1016.7
20260504211429 79 173 2.0 9.0 0.00 0.00 0.00 40 1016.7
20260504210923 79 205 2.0 7.0 0.00 0.00 0.00 39 1016.6
20260504210647 79 328 3.0 9.0 0.00 0.00 0.00 37 1016.6
20260504205912 79 232 3.0 9.0 0.00 0.00 0.00 37 1016.7
20260504205405 79 184 3.0 8.0 0.00 0.00 0.00 38 1016.7
20260504204859 79 158 3.0 8.0 0.00 0.00 0.00 37 1016.8
20260504204354 79 210 3.0 7.0 0.00 0.00 0.00 38 1016.9
20260504203848 79 199 3.0 9.0 0.00 0.00 0.00 38 1017.0
20260504203341 79 191 3.0 9.0 0.00 0.00 0.00 36 1017.1
20260504202835 80 243 3.0 13.0 0.00 0.00 0.00 37 1017.2
20260504202329 80 211 3.0 13.0 0.00 0.00 0.00 37 1017.2
20260504201823 80 159 3.0 8.0 0.00 0.00 0.00 37 1017.3
20260504201317 80 333 2.0 9.0 0.00 0.00 0.00 37 1017.3
20260504200811 80 207 1.0 8.0 0.00 0.00 0.00 36 1017.3
20260504200527 80 195 2.0 9.0 0.00 0.00 0.00 37 1017.4
20260504195800 79 210 3.0 9.0 0.00 0.00 0.00 36 1017.6
20260504195254 80 194 3.0 8.0 0.00 0.00 0.00 36 1017.5
20260504194747 80 333 2.0 8.0 0.00 0.00 0.00 37 1017.5
20260504194241 80 192 2.0 11.0 0.00 0.00 0.00 40 1017.7
20260504193954 80 223 3.0 11.0 0.00 0.00 0.00 37 1017.6
20260504193457 80 323 2.0 6.0 0.00 0.00 0.00 38 1017.7
20260504192723 80 196 3.0 7.0 0.00 0.00 0.00 38 1017.7
20260504192445 80 246 3.0 7.0 0.00 0.00 0.00 37 1017.7
20260504191711 80 186 2.0 7.0 0.00 0.00 0.00 37 1017.8
20260504191205 80 159 2.0 7.0 0.00 0.00 0.00 36 1017.9
20260504190659 80 231 2.0 7.0 0.00 0.00 0.00 38 1018.0
20260504190153 80 322 2.0 9.0 0.00 0.00 0.00 40 1018.0
20260504185647 80 240 2.0 9.0 0.00 0.00 0.00 38 1018.0
20260504185141 80 188 3.0 9.0 0.00 0.00 0.00 39 1018.0
20260504184635 79 153 3.0 9.0 0.00 0.00 0.00 38 1018.2
20260504184129 79 166 2.0 7.0 0.00 0.00 0.00 37 1018.3
20260504183844 80 175 2.0 7.0 0.00 0.00 0.00 38 1018.5
20260504183341 79 250 3.0 10.0 0.00 0.00 0.00 43 1018.5
20260504182618 79 202 3.0 10.0 0.00 0.00 0.00 40 1018.5
20260504182118 79 223 2.0 8.0 0.00 0.00 0.00 39 1018.6
20260504181619 79 342 2.0 9.0 0.00 0.00 0.00 43 1018.6
20260504181118 79 344 2.0 9.0 0.00 0.00 0.00 44 1018.7
20260504180617 78 267 3.0 8.0 0.00 0.00 0.00 40 1018.6
20260504180114 78 170 3.0 8.0 0.00 0.00 0.00 41 1018.6
20260504180053 78 207 3.0 12.0 0.00 0.00 0.00 40 1018.6
20260504175115 78 219 3.0 12.0 0.00 0.00 0.00 39 1018.7
20260504174613 78 189 3.0 9.0 0.00 0.00 0.00 39 1018.7
20260504174113 79 211 2.0 8.0 0.00 0.00 0.00 40 1018.7
20260504173828 78 227 2.0 10.0 0.00 0.00 0.00 43 1018.8
20260504173111 78 206 3.0 10.0 0.00 0.00 0.00 42 1018.8
20260504172612 78 208 2.0 9.0 0.00 0.00 0.00 41 1018.9
20260504172113 79 232 2.0 6.0 0.00 0.00 0.00 38 1018.9
20260504171827 79 209 2.0 7.0 0.00 0.00 0.00 39 1019.0
20260504171109 80 205 1.0 7.0 0.00 0.00 0.00 41 1018.9
20260504170609 80 209 1.0 7.0 0.00 0.00 0.00 42 1019.0
20260504170109 80 217 1.0 7.0 0.00 0.00 0.00 42 1019.2
20260504160106 77 248 2.0 5.0 0.00 0.00 0.00 46 1019.7
20260504151057 72 292 1.0 4.0 0.00 0.00 0.00 55 1020.1
20260504150555 71 304 1.0 5.0 0.00 0.00 0.00 59 1020.1
20260504141042 64 320 1.0 4.0 0.00 0.00 0.00 75 1020.0
20260504140536 64 207 0.0 3.0 0.00 0.00 0.00 75 1020.0
20260504140251 63 206 0.0 3.0 0.00 0.00 0.00 74 1020.0